Time,TemperatureF,DewpointF,PressureIn,WindDirection,WindDirectionDegrees,WindSpeedMPH,WindSpeedGustMPH,Humidity,HourlyPrecipIn,Conditions,Clouds,dailyrainin,SoftwareType,DateUTC
2013-03-03 00:11:00,2.0,-99.9,-100.00,South,191,5.0,7.0,-999,-99.99,,,-99.99,,2013-03-03 06:11:00,
2013-03-03 00:22:00,2.0,-99.9,-100.00,South,191,5.0,7.0,-999,-99.99,,,-99.99,,2013-03-03 06:22:00,
2013-03-03 00:32:00,2.0,-99.9,-100.00,South,191,5.0,7.0,-999,-99.99,,,-99.99,,2013-03-03 06:32:00,
2013-03-03 01:40:00,1.0,-99.9,-100.00,South,188,7.0,9.0,-999,-99.99,,,-99.99,,2013-03-03 07:40:00,
2013-03-03 02:11:00,1.0,-99.9,-100.00,South,188,7.0,9.0,-999,-99.99,,,-99.99,,2013-03-03 08:11:00,
2013-03-03 02:22:00,1.0,-99.9,-100.00,South,188,7.0,9.0,-999,-99.99,,,-99.99,,2013-03-03 08:22:00,
2013-03-03 02:32:00,1.0,-99.9,-100.00,South,188,7.0,9.0,-999,-99.99,,,-99.99,,2013-03-03 08:32:00,
2013-03-03 02:40:00,-2.0,-99.9,-100.00,SSW,193,6.0,9.0,-999,-99.99,,,-99.99,,2013-03-03 08:40:00,
2013-03-03 03:12:00,-2.0,-99.9,-100.00,SSW,193,6.0,9.0,-999,-99.99,,,-99.99,,2013-03-03 09:12:00,
2013-03-03 03:22:00,-2.0,-99.9,-100.00,SSW,193,6.0,9.0,-999,-99.99,,,-99.99,,2013-03-03 09:22:00,
2013-03-03 03:32:00,-2.0,-99.9,-100.00,SSW,193,6.0,9.0,-999,-99.99,,,-99.99,,2013-03-03 09:32:00,
2013-03-03 03:40:00,-3.0,-99.9,-100.00,SSW,199,6.0,9.0,-999,-99.99,,,-99.99,,2013-03-03 09:40:00,
2013-03-03 04:12:00,-3.0,-99.9,-100.00,SSW,199,6.0,9.0,-999,-99.99,,,-99.99,,2013-03-03 10:12:00,
2013-03-03 04:22:00,-3.0,-99.9,-100.00,SSW,199,6.0,9.0,-999,-99.99,,,-99.99,,2013-03-03 10:22:00,
2013-03-03 04:32:00,-3.0,-99.9,-100.00,SSW,199,6.0,9.0,-999,-99.99,,,-99.99,,2013-03-03 10:32:00,
2013-03-03 04:40:00,-6.0,-99.9,-100.00,SSW,197,4.0,5.0,-999,-99.99,,,-99.99,,2013-03-03 10:40:00,
2013-03-03 05:11:00,-6.0,-99.9,-100.00,SSW,197,4.0,5.0,-999,-99.99,,,-99.99,,2013-03-03 11:11:00,
2013-03-03 05:22:00,-6.0,-99.9,-100.00,SSW,197,4.0,5.0,-999,-99.99,,,-99.99,,2013-03-03 11:22:00,
2013-03-03 05:32:00,-6.0,-99.9,-100.00,SSW,197,4.0,5.0,-999,-99.99,,,-99.99,,2013-03-03 11:32:00,
2013-03-03 05:40:00,-7.0,-99.9,-100.00,South,188,3.0,4.0,-999,-99.99,,,-99.99,,2013-03-03 11:40:00,
2013-03-03 06:11:00,-7.0,-99.9,-100.00,South,188,3.0,4.0,-999,-99.99,,,-99.99,,2013-03-03 12:11:00,
2013-03-03 06:22:00,-7.0,-99.9,-100.00,South,188,3.0,4.0,-999,-99.99,,,-99.99,,2013-03-03 12:22:00,
2013-03-03 06:32:00,-7.0,-99.9,-100.00,South,188,3.0,4.0,-999,-99.99,,,-99.99,,2013-03-03 12:32:00,
2013-03-03 06:40:00,-8.0,-99.9,-100.00,South,191,4.0,6.0,-999,-99.99,,,-99.99,,2013-03-03 12:40:00,
2013-03-03 07:11:00,-8.0,-99.9,-100.00,South,191,4.0,6.0,-999,-99.99,,,-99.99,,2013-03-03 13:11:00,
2013-03-03 07:22:00,-8.0,-99.9,-100.00,South,191,4.0,6.0,-999,-99.99,,,-99.99,,2013-03-03 13:22:00,
2013-03-03 07:32:00,-8.0,-99.9,-100.00,South,191,4.0,6.0,-999,-99.99,,,-99.99,,2013-03-03 13:32:00,
2013-03-03 07:40:00,-5.0,-99.9,-100.00,SSW,195,6.0,7.0,-999,-99.99,,,-99.99,,2013-03-03 13:40:00,
2013-03-03 08:11:00,-5.0,-99.9,-100.00,SSW,195,6.0,7.0,-999,-99.99,,,-99.99,,2013-03-03 14:11:00,
2013-03-03 08:22:00,-5.0,-99.9,-100.00,SSW,195,6.0,7.0,-999,-99.99,,,-99.99,,2013-03-03 14:22:00,
2013-03-03 08:32:00,-5.0,-99.9,-100.00,SSW,195,6.0,7.0,-999,-99.99,,,-99.99,,2013-03-03 14:32:00,
2013-03-03 09:11:00,8.0,-99.9,-100.00,SSW,197,3.0,6.0,-999,-99.99,,,-99.99,,2013-03-03 15:11:00,
2013-03-03 09:22:00,8.0,-99.9,-100.00,SSW,197,3.0,6.0,-999,-99.99,,,-99.99,,2013-03-03 15:22:00,
2013-03-03 09:33:00,18.0,-99.9,-100.00,SE,139,0.0,15.0,-999,-99.99,,,-99.99,,2013-03-03 15:33:00,
2013-03-03 09:40:00,22.0,-99.9,-100.00,NNW,328,1.0,2.0,-999,-99.99,,,-99.99,,2013-03-03 15:40:00,
2013-03-03 09:42:00,18.0,-99.9,-100.00,SE,139,0.0,15.0,-999,-99.99,,,-99.99,,2013-03-03 15:42:00,
2013-03-03 09:52:00,18.0,-99.9,-100.00,SE,139,0.0,15.0,-999,-99.99,,,-99.99,,2013-03-03 15:52:00,
2013-03-03 10:02:00,18.0,-99.9,-100.00,SE,139,0.0,15.0,-999,-99.99,,,-99.99,,2013-03-03 16:02:00,
2013-03-03 10:12:00,22.0,-99.9,-100.00,NNW,328,1.0,2.0,-999,-99.99,,,-99.99,,2013-03-03 16:12:00,
2013-03-03 10:22:00,22.0,-99.9,-100.00,NNW,328,1.0,2.0,-999,-99.99,,,-99.99,,2013-03-03 16:22:00,
2013-03-03 10:32:00,22.0,-99.9,-100.00,NNW,328,1.0,2.0,-999,-99.99,,,-99.99,,2013-03-03 16:32:00,
2013-03-03 10:40:00,24.0,-99.9,-100.00,NW,309,2.0,3.0,-999,-99.99,,,-99.99,,2013-03-03 16:40:00,
2013-03-03 11:12:00,24.0,-99.9,-100.00,NW,309,2.0,3.0,-999,-99.99,,,-99.99,,2013-03-03 17:12:00,
2013-03-03 11:22:00,24.0,-99.9,-100.00,NW,309,2.0,3.0,-999,-99.99,,,-99.99,,2013-03-03 17:22:00,
2013-03-03 11:32:00,24.0,-99.9,-100.00,NW,309,2.0,3.0,-999,-99.99,,,-99.99,,2013-03-03 17:32:00,
2013-03-03 11:40:00,26.0,-99.9,-100.00,NNW,347,4.0,4.0,-999,-99.99,,,-99.99,,2013-03-03 17:40:00,
2013-03-03 12:11:00,26.0,-99.9,-100.00,NNW,347,4.0,4.0,-999,-99.99,,,-99.99,,2013-03-03 18:11:00,
2013-03-03 12:22:00,26.0,-99.9,-100.00,NNW,347,4.0,4.0,-999,-99.99,,,-99.99,,2013-03-03 18:22:00,
2013-03-03 12:32:00,26.0,-99.9,-100.00,NNW,347,4.0,4.0,-999,-99.99,,,-99.99,,2013-03-03 18:32:00,
2013-03-03 12:40:00,26.0,-99.9,-100.00,NNE,18,7.0,8.0,-999,-99.99,,,-99.99,,2013-03-03 18:40:00,
2013-03-03 13:11:00,26.0,-99.9,-100.00,NNE,18,7.0,8.0,-999,-99.99,,,-99.99,,2013-03-03 19:11:00,
2013-03-03 13:22:00,26.0,-99.9,-100.00,NNE,18,7.0,8.0,-999,-99.99,,,-99.99,,2013-03-03 19:22:00,
2013-03-03 13:32:00,26.0,-99.9,-100.00,NNE,18,7.0,8.0,-999,-99.99,,,-99.99,,2013-03-03 19:32:00,
2013-03-03 13:40:00,26.0,-99.9,-100.00,NNE,30,9.0,11.0,-999,-99.99,,,-99.99,,2013-03-03 19:40:00,
2013-03-03 14:12:00,26.0,-99.9,-100.00,NNE,30,9.0,11.0,-999,-99.99,,,-99.99,,2013-03-03 20:12:00,
2013-03-03 14:22:00,26.0,-99.9,-100.00,NNE,30,9.0,11.0,-999,-99.99,,,-99.99,,2013-03-03 20:22:00,
2013-03-03 14:32:00,26.0,-99.9,-100.00,NNE,30,9.0,11.0,-999,-99.99,,,-99.99,,2013-03-03 20:32:00,
2013-03-03 14:40:00,27.0,-99.9,-100.00,NNE,26,9.0,12.0,-999,-99.99,,,-99.99,,2013-03-03 20:40:00,
2013-03-03 15:12:00,27.0,-99.9,-100.00,NNE,26,9.0,12.0,-999,-99.99,,,-99.99,,2013-03-03 21:12:00,
2013-03-03 15:22:00,27.0,-99.9,-100.00,NNE,26,9.0,12.0,-999,-99.99,,,-99.99,,2013-03-03 21:22:00,
2013-03-03 15:32:00,27.0,-99.9,-100.00,NNE,26,9.0,12.0,-999,-99.99,,,-99.99,,2013-03-03 21:32:00,
2013-03-03 15:40:00,28.0,-99.9,-100.00,NE,40,9.0,12.0,-999,-99.99,,,-99.99,,2013-03-03 21:40:00,
2013-03-03 16:11:00,28.0,-99.9,-100.00,NE,40,9.0,12.0,-999,-99.99,,,-99.99,,2013-03-03 22:11:00,
2013-03-03 16:22:00,28.0,-99.9,-100.00,NE,40,9.0,12.0,-999,-99.99,,,-99.99,,2013-03-03 22:22:00,
2013-03-03 16:32:00,28.0,-99.9,-100.00,NE,40,9.0,12.0,-999,-99.99,,,-99.99,,2013-03-03 22:32:00,
2013-03-03 16:40:00,27.0,-99.9,-100.00,NE,40,11.0,13.0,-999,-99.99,,,-99.99,,2013-03-03 22:40:00,
2013-03-03 17:12:00,27.0,-99.9,-100.00,NE,40,11.0,13.0,-999,-99.99,,,-99.99,,2013-03-03 23:12:00,
2013-03-03 17:22:00,27.0,-99.9,-100.00,NE,40,11.0,13.0,-999,-99.99,,,-99.99,,2013-03-03 23:22:00,
2013-03-03 17:32:00,27.0,-99.9,-100.00,NE,40,11.0,13.0,-999,-99.99,,,-99.99,,2013-03-03 23:32:00,
2013-03-03 17:40:00,24.0,-99.9,-100.00,NE,48,8.0,12.0,-999,-99.99,,,-99.99,,2013-03-03 23:40:00,
2013-03-03 18:11:00,24.0,-99.9,-100.00,NE,48,8.0,12.0,-999,-99.99,,,-99.99,,2013-03-04 00:11:00,
2013-03-03 18:22:00,24.0,-99.9,-100.00,NE,48,8.0,12.0,-999,-99.99,,,-99.99,,2013-03-04 00:22:00,
2013-03-03 18:32:00,24.0,-99.9,-100.00,NE,48,8.0,12.0,-999,-99.99,,,-99.99,,2013-03-04 00:32:00,
2013-03-03 18:40:00,19.0,-99.9,-100.00,SSW,212,0.0,2.0,-999,-99.99,,,-99.99,,2013-03-04 00:40:00,
2013-03-03 19:12:00,19.0,-99.9,-100.00,SSW,212,0.0,2.0,-999,-99.99,,,-99.99,,2013-03-04 01:12:00,
2013-03-03 19:22:00,19.0,-99.9,-100.00,SSW,212,0.0,2.0,-999,-99.99,,,-99.99,,2013-03-04 01:22:00,
2013-03-03 19:32:00,19.0,-99.9,-100.00,SSW,212,0.0,2.0,-999,-99.99,,,-99.99,,2013-03-04 01:32:00,
2013-03-03 19:40:00,15.0,-99.9,-100.00,South,177,3.0,3.0,-999,-99.99,,,-99.99,,2013-03-04 01:40:00,
2013-03-03 20:11:00,15.0,-99.9,-100.00,South,177,3.0,3.0,-999,-99.99,,,-99.99,,2013-03-04 02:11:00,
2013-03-03 20:22:00,15.0,-99.9,-100.00,South,177,3.0,3.0,-999,-99.99,,,-99.99,,2013-03-04 02:22:00,
2013-03-03 20:32:00,15.0,-99.9,-100.00,South,177,3.0,3.0,-999,-99.99,,,-99.99,,2013-03-04 02:32:00,
2013-03-03 20:40:00,14.0,-99.9,-100.00,South,180,3.0,4.0,-999,-99.99,,,-99.99,,2013-03-04 02:40:00,
2013-03-03 21:12:00,14.0,-99.9,-100.00,South,180,3.0,4.0,-999,-99.99,,,-99.99,,2013-03-04 03:12:00,
2013-03-03 21:22:00,14.0,-99.9,-100.00,South,180,3.0,4.0,-999,-99.99,,,-99.99,,2013-03-04 03:22:00,
2013-03-03 21:32:00,14.0,-99.9,-100.00,South,180,3.0,4.0,-999,-99.99,,,-99.99,,2013-03-04 03:32:00,
2013-03-03 21:40:00,12.0,-99.9,-100.00,South,190,3.0,4.0,-999,-99.99,,,-99.99,,2013-03-04 03:40:00,
2013-03-03 22:11:00,12.0,-99.9,-100.00,South,190,3.0,4.0,-999,-99.99,,,-99.99,,2013-03-04 04:11:00,
2013-03-03 22:22:00,12.0,-99.9,-100.00,South,190,3.0,4.0,-999,-99.99,,,-99.99,,2013-03-04 04:22:00,
2013-03-03 22:32:00,12.0,-99.9,-100.00,South,190,3.0,4.0,-999,-99.99,,,-99.99,,2013-03-04 04:32:00,
2013-03-03 22:40:00,13.0,-99.9,-100.00,South,184,3.0,4.0,-999,-99.99,,,-99.99,,2013-03-04 04:40:00,
2013-03-03 23:11:00,13.0,-99.9,-100.00,South,184,3.0,4.0,-999,-99.99,,,-99.99,,2013-03-04 05:11:00,
2013-03-03 23:22:00,13.0,-99.9,-100.00,South,184,3.0,4.0,-999,-99.99,,,-99.99,,2013-03-04 05:22:00,
2013-03-03 23:32:00,13.0,-99.9,-100.00,South,184,3.0,4.0,-999,-99.99,,,-99.99,,2013-03-04 05:32:00,
2013-03-03 23:40:00,12.0,-99.9,-100.00,SSW,194,2.0,3.0,-999,-99.99,,,-99.99,,2013-03-04 05:40:00,